Weather History for Asahikawa Airport, Japan

Change the Weather History Date:

Friday, December 7, 2012

  Actual Average Record
Temperature  
Mean Temperature 21 °F -  
Max Temperature 23 °F 24 °F 39 °F (2004)
Min Temperature 19 °F 13 °F -2 °F (2000)
Degree Days  
Heating Degree Days 44    
Moisture  
Dew Point 13 °F    
Average Humidity 74    
Maximum Humidity 86    
Minimum Humidity 54    
Precipitation  
Precipitation 0.00 in - - ()
Sea Level Pressure  
Sea Level Pressure 29.68 in    
Wind  
Wind Speed 15 mph ()    
Max Wind Speed 20 mph    
Max Gust Speed 36 mph    
Visibility 3.0 miles    
Events Snow    
Averages and records for this station are not official NWS values.
T = Trace of Precipitation, MM = Missing Value Source: Averaged Metar Reports

Daily Weather History Graph

Daily Weather History Graph

Search for Another Location

Airport:

Trip Planner

Search our weather history database for the weather conditions in past years. The results will help you decide how hot, cold, wet, or windy it might be!

Date:

Astronomy

Dec. 07, 2012 Rise Set
Actual Time 6:49 AM JST 3:53 PM JST
Civil Twilight 6:17 AM JST 4:25 PM JST
Nautical Twilight 5:41 AM JST 5:01 PM JST
Astronomical Twilight 5:06 AM JST 5:36 PM JST
Moon No Moon Rise 11:41 AM JST (12/7)
Length of Visible Light 10h 08m
Length of Day
9h 03m
Last Quarter, 45% of the Moon is Illuminated
Dec 7
Last Quarter
Dec 13
New
Dec 20
First Quarter
Dec 28
Full
Jan 5
Last Quarter

Hourly Weather History & Observations

Time (JST) Temp. Windchill Dew Point Humidity Pressure Visibility Wind Dir Wind Speed Gust Speed Precip Events Conditions
6:48 AM 19.4 °F 5.5 °F 12.2 °F 74% 29.65 in - South 15.0 mph - N/A Snow Light Snow Showers
7:00 AM 19.4 °F 4.5 °F 15.8 °F 86% 29.65 in 0.9 mi South 17.3 mph - N/A Snow Light Snow Showers
7:05 AM 19.4 °F 4.5 °F 15.8 °F 86% 29.65 in 0.9 mi South 17.3 mph - N/A Snow Light Snow Showers
7:08 AM 19.4 °F 5.0 °F 14.0 °F 80% 29.65 in 1.5 mi South 16.1 mph - N/A Snow Light Snow Showers
7:33 AM 19.4 °F 4.5 °F 14.0 °F 80% 29.65 in 1.4 mi SSW 17.3 mph - N/A Snow Light Snow Showers
7:47 AM 19.4 °F 4.1 °F 14.0 °F 80% 29.65 in 1.5 mi South 18.4 mph - N/A Snow Light Snow Showers
7:49 AM 19.4 °F 4.5 °F 14.0 °F 80% 29.65 in 3.1 mi South 17.3 mph - N/A Snow Light Snow Showers
8:00 AM 19.4 °F 4.1 °F 14.0 °F 80% 29.68 in 5.0 mi South 18.4 mph - N/A Snow Light Snow Showers
8:34 AM 19.4 °F 4.1 °F 14.0 °F 80% 29.68 in - SSE 18.4 mph - N/A Snow Light Snow Showers
8:38 AM 19.4 °F 4.5 °F 14.0 °F 80% 29.68 in - SSE 17.3 mph - N/A Snow Light Snow Showers
8:41 AM 19.4 °F 4.1 °F 15.8 °F 86% 29.68 in 0.9 mi SSE 18.4 mph - N/A Snow Light Snow Showers
9:00 AM 19.4 °F 3.6 °F 15.8 °F 86% 29.68 in 0.6 mi South 19.6 mph - N/A Snow Snow Showers
9:11 AM 19.4 °F 3.6 °F 15.8 °F 86% 29.68 in 0.6 mi South 19.6 mph - N/A Snow Light Snow Showers
9:33 AM 19.4 °F 5.0 °F 14.0 °F 80% 29.68 in 0.9 mi South 16.1 mph - N/A Snow Light Snow Showers
9:47 AM 19.4 °F 4.1 °F 14.0 °F 80% 29.68 in 1.0 mi South 18.4 mph - N/A Snow Light Snow Showers
9:49 AM 19.4 °F 4.1 °F 14.0 °F 80% 29.68 in 1.5 mi South 18.4 mph - N/A Snow Light Snow Showers
10:00 AM 21.2 °F 6.0 °F 12.2 °F 68% 29.68 in 3.1 mi South 19.6 mph - N/A Snow Light Snow Showers
10:22 AM 21.2 °F 6.8 °F 12.2 °F 68% 29.68 in - South 17.3 mph - N/A Snow Light Snow Showers
10:35 AM 21.2 °F 7.8 °F 12.2 °F 68% 29.68 in 3.1 mi South 15.0 mph - N/A Snow Light Snow Showers
11:00 AM 21.2 °F 6.8 °F 14.0 °F 74% 29.68 in 3.7 mi SSW 17.3 mph - N/A Snow Light Snow Showers
12:00 PM 23.0 °F 10.6 °F 14.0 °F 68% 29.68 in 6.2 mi SSW 13.8 mph - N/A Snow Light Snow Showers
12:40 PM 23.0 °F 10.1 °F 12.2 °F 63% 29.68 in - SSW 15.0 mph - N/A Snow Light Snow Showers
1:00 PM 23.0 °F 11.1 °F 12.2 °F 63% 29.68 in 5.0 mi SSW 12.7 mph - N/A Snow Light Snow Showers
2:00 PM 23.0 °F 11.1 °F 10.4 °F 59% 29.68 in 6.2 mi SW 12.7 mph - N/A Snow Light Snow Showers
2:32 PM 23.0 °F 8.3 °F 10.4 °F 59% 29.68 in 6.2 mi SW 19.6 mph 35.7 mph N/A Snow Light Snow Showers
3:00 PM 21.2 °F 7.3 °F 15.8 °F 80% 29.68 in 5.0 mi SW 16.1 mph 27.6 mph N/A Snow Light Snow Showers
3:46 PM 21.2 °F 8.3 °F 12.2 °F 68% 29.68 in 1.9 mi SSW 13.8 mph - N/A Snow Light Snow Showers
3:49 PM 21.2 °F 8.3 °F 14.0 °F 74% 29.68 in 1.1 mi SSW 13.8 mph - N/A Snow Light Snow Showers
4:00 PM 19.4 °F 6.0 °F 15.8 °F 86% 29.68 in 0.9 mi SSW 13.8 mph - N/A Snow Light Snow Showers
4:10 PM 19.4 °F 7.2 °F 14.0 °F 80% 29.68 in 1.0 mi South 11.5 mph - N/A Snow Light Snow Showers
4:17 PM 19.4 °F 7.2 °F 14.0 °F 80% 29.68 in 1.5 mi South 11.5 mph - N/A Snow Light Snow Showers
4:39 PM 21.2 °F 8.9 °F 12.2 °F 68% 29.71 in - SSW 12.7 mph - N/A Snow Light Snow Showers
4:47 PM 21.2 °F 7.8 °F 12.2 °F 68% 29.68 in 3.1 mi South 15.0 mph - N/A Snow Light Snow Showers
5:00 PM 19.4 °F 4.1 °F 12.2 °F 74% 29.71 in 6.2 mi South 18.4 mph - N/A Snow Light Snow Showers
5:27 PM 19.4 °F 5.5 °F 10.4 °F 68% 29.71 in - South 15.0 mph - N/A Snow Light Snow Showers
5:38 PM 19.4 °F 3.6 °F 12.2 °F 74% 29.71 in - South 19.6 mph - N/A Snow Light Snow Showers
5:45 PM 19.4 °F 4.5 °F 12.2 °F 74% 29.71 in 3.1 mi South 17.3 mph - N/A Snow Light Snow Showers
6:00 PM 19.4 °F 5.0 °F 10.4 °F 68% 29.71 in 6.2 mi South 16.1 mph - N/A Snow Light Snow Showers
7:00 PM 21.2 °F 6.8 °F 8.6 °F 58% 29.71 in 6.2 mi South 17.3 mph - N/A Snow Light Snow Showers
8:00 PM 19.4 °F 4.5 °F 5.0 °F 54% 29.71 in 6.2 mi South 17.3 mph - N/A   Mostly Cloudy